www.pogodaiklimat.ru

ПОГОДА в Чулитне, AK

  • Прогноз погоды в Чулитне
  • Монитор погоды в Чулитне
  • Климат в Чулитне

АРХИВ ПОГОДЫ в Чулитне

Время (UTC), дата Ветер
(напр.,м/с)
 
Видим.   Явления Облачность Т
(С)
Тd
(С)
f
(%)
Тe
(С)
Тes
(С)
Комфортность

P
(гПа)

Po
(гПа)
Тmin
(С)
Tmax
(С)
R
(мм)
SD
(см)
01:51 13.08 Ю  32 км    8/8 900 м  +22.0  +11.0  50  +24  +25  комфорт    972.0         
13:48 13.08   2 км  дымка  10/10 240 м  +14.0  +12.0  88  +14  +14      972.3         
15:52 13.08   3 км  морось, дымка  10/10 300 м  +14.0  +12.0  88  +14  +14      972.3         
17:46 13.08   1 км  морось, дымка  10/10 150 м  +14.0  +13.0  94  +14  +14      972.7         
19:53 13.08   800 м  слабый дождь, туман  ?/?  +14.0  +13.0  94  +14  +14      972.7         
21:49 13.08   800 м  слабый дождь, туман  ?/?  +14.0  +13.0  94  +14  +14      972.7         
23:52 13.08 Ю  800 м  туман  ?/?  +14.0  +14.0  100  +13  +13      972.0         
01:47 14.08 С  800 м  туман  ?/?  +14.0  +14.0  100  +13  +13      971.7         
13:46 14.08   400 м  слабая морось, туман  ?/?  +14.0  +13.0  94  +14  +14      973.3         
15:50 14.08   208 м  туман  ?/?  +14.0  +14.0  100  +13  +13      974.0         
17:56 14.08   3 км  дымка  8/8 180 м  +16.0  +14.0  88  +16  +17      974.0         
19:46 14.08 Ю  13 км    8/8 150 м  +17.0  +14.0  82  +17  +18      974.3         
21:49 14.08   16 км    8/8 540 м  +18.0  +14.0  77  +18  +21      974.6         
23:50 14.08 З  24 км    8/8 900 м  +19.0  +13.0  68  +20  +22      974.9         
01:46 15.08   24 км    10/10 750 м  +19.0  +12.0  64  +20  +20      974.9         
13:50 15.08   16 км    10/10 540 м  +13.0  +12.0  94  +12  +12      976.2         
15:52 15.08   16 км    10/10 180 м  +14.0  +13.0  94  +14  +14      977.5         
17:54 15.08   8 км  дымка  10/10 180 м  +14.0  +14.0  100  +13  +13      978.2         
19:46 15.08   16 км    10/10 600 м  +15.0  +11.0  77  +15  +15      978.8         
21:54 15.08   16 км    10/10 600 м  +17.0  +12.0  72  +17  +17      978.8         
23:58 15.08   24 км    8/8 690 м  +18.0  +12.0  68  +18  +20      978.5         
17:53 16.08   3 км  дымка  10/10 300 м  +13.0  +12.0  94  +12  +12      976.5         
19:53 16.08 СВ  13 км    8/8 180 м  +16.0  +13.0  82  +16  +17      975.6         
21:48 16.08   16 км    8/8 360 м  +20.0  +14.0  68  +22  +24  комфорт    974.3         
23:46 16.08 СЗ  16 км    10/10 600 м  +18.0  +12.0  68  +18  +18      973.3         
01:48 17.08 С  16 км    10/10 540 м  +16.0  +8.0  59  +15  +15      972.7         
13:48 17.08 СВ  48 км    2/2 900 м
[средняя] 
+11.0  +1.0  50  +9  +9      978.2         
15:48 17.08 З  48 км    ясно  +12.0  +2.0  50  +9  +9      979.5         
17:48 17.08 С  48 км    ясно  +14.0  +2.0  44  +13  +15      980.1         
19:46 17.08 Ю  48 км    ясно  +16.0  +2.0  39  +15  +20      980.1         
21:52 17.08 С  48 км    ясно  +17.0  0.0  32  +15  +16      980.1         
23:46 17.08 З  48 км    ясно  +16.0  -1.0  31  +15  +17      979.8         
01:46 18.08 С  48 км    ясно  +15.0  -1.0  33  +14  +16      979.5         
13:52 18.08 С  48 км    2/2 1800 м  +10.0  -2.0  43  +7  +7      975.9         
15:46 18.08 С  48 км    2/2 600 м  +11.0  0.0  47  +8  +9      975.9         
17:52 18.08 С  48 км    2/2 900 м  +12.0  -3.0  35  +10  +11      975.6         
19:54 18.08 С  48 км    ясно  +14.0  -1.0  36  +12  +14      975.6         
21:53 18.08 С  48 км    ясно  +15.0  -1.0  33  +14  +17      975.6         
23:48 18.08 В  48 км    ясно  +14.0  -2.0  33  +12  +15      975.3         
13:51 19.08 З  48 км    2/0 2400 м
[средняя] 
+4.0  -1.0  70  +1  +1      969.8         
15:53 19.08 В  48 км    2/0 7500 м
[верхняя] 
+7.0  +1.0  66  +5  +5      969.4         
17:51 19.08 З  48 км    ясно  +11.0  -1.0  43  +10  +13      968.5         
19:49 19.08   48 км    ясно  +14.0  -2.0  33  +14  +24      967.5         
21:46 19.08 С  48 км    ясно  +15.0  -3.0  29  +15  +23      966.2         
23:48 19.08   48 км    2/0 9000 м
[верхняя] 
+16.0  -2.0  29  +16  +26      964.9         
01:46 20.08   48 км    2/0 10500 м
[верхняя] 
+15.0  -3.0  29  +15  +20      964.2         
13:46 20.08   1 км  дым  ясно  +3.0  +1.0  87  +2  +2      963.9         
15:49 20.08   1 км  дым  ясно  +4.0  +1.0  81  +3  +4      963.6         

 

Местоположение метеостанции Chulitna Airport: широта 62.8800 долгота -149.8300 высота над уровнем моря 381 м.

В архиве по умолчанию представлена погода в Чулитне за последние 1-2 суток. Обновление информации о фактической погоде в базе происходит ежечасно! Архивные данные за месяц целиком и за предыдущие месяцы Вы можете получить, выбрав интересующий диапазон дат из раскрывающегося списка и нажав кнопку "Ввод!".

Внимание! Архив погоды МЕТАР в базе сайта хранится не более 60 дней. Нет смысла пытаться выбрать более раннюю дату.

Внимание! Время в таблицах - всемирное. Для получения местного времени необходимо прибавить поправку, которая в Чулитне равна -9 ч.

Ветер - указаны скорость ветра в м/с и направление, откуда дует ветер: С - северный, СВ - северо-восточный, В - восточный, ЮВ - юго-восточный, Ю - южный, ЮЗ - юго-западный, З - западный, СЗ - северо-западный.
Видимость - горизонтальная дальность видимости в метрах или километрах. При видимости от 1 до 10 км при отсутствии осадков обычно наблюдается дымка, при ухудшении видимости до 1 км и менее - туман. В сухую погоду видимость может ухудшаться дымом, пылью или мглою.
Атмосферные явления - указаны явления, наблюдавшиеся в указанный момент времени.
Облачность - указаны через наклонную черту верхняя и нижняя облачность в баллах и высота нижней границы облаков в метрах. Внимание: облачность, как и прочие метеорологические величины в США измеряются автоматическими метеостанциями. Указанные значения в баллах носят условный характер и показывают процент времени, в течение которого, в среднем, лазерный луч высотомера отражался от облаков обратно.
T - Температура воздуха - температура, измеренная на высоте 2 м над землей.
Td - Температура точки росы - температура, при понижении до которой содержащийся в воздухе водяной пар достигнет насыщения.
f - Относительная влажность воздуха - влажноcть воздуха, измеренная на высоте 2 м над землей.
Te - Эффективная температура - температура, которую ощущает одетый по сезону человек в тени. Характеристика душности погоды. При расчете учитывается влияние влажности воздуха и скорости ветра на теплоощущения человека.
Tes - Эффективная температура на солнце - температура, которую ощущает человек, с поправкой на солнечный нагрев. Характеристика знойности погоды. Зависит от высоты солнца над горизонтом, облачности и скорости ветра. Ночью, в пасмурную погоду, а также при ветре 12 м/с и более поправка равна нулю.
P - Атмосферное давление - приведенное к уровню моря атмосферное давление.
Po - Атмосферное давление - измеренное на уровне метеостанции атмосферное давление.
Tmin - Минимальная температура - минимум температуры воздуха на высоте 2 м над землей.
Tmax - Максимальная температура - максимум температуры воздуха на высоте 2 м над землей.
R - Количество осадков - Количество выпавших осадков за 3 или 6 часов, мм.
SD - Снежный покров - Высота снежного покрова, см.